Weather History for Toledo, OH

Change the Weather History Date:

Saturday, June 7, 2014

  Actual Average Record
Temperature  
Mean Temperature 68 °F 67 °F  
Max Temperature 83 °F 78 °F 98 °F (1933)
Min Temperature 52 °F 56 °F 42 °F (1945)
Degree Days  
Heating Degree Days 0 2  
Month to date heating degree days 7 18  
Since 1 June heating degree days 7 18  
Since 1 July heating degree days 7123 6128  
Cooling Degree Days 3 4  
Month to date cooling degree days 29 25  
Year to date cooling degree days 91 78  
Since 1 June cooling degree days 29 25  
Growing Degree Days 17 (Base 50)    
Moisture  
Dew Point 51 °F    
Average Humidity 63    
Maximum Humidity 93    
Minimum Humidity 33    
Precipitation  
Precipitation 0.00 in 0.13 in 1.39 in (1963)
Month to date precipitation 0.42 0.86  
Year to date precipitation 14.27 14.23  
Snow  
Snow 0.00 in 0.00 in - ()
Month to date snowfall 0.0 0.0  
Since 1 June snowfall 0.0 0.0  
Since 1 July snowfall 86.3 37.6  
Snow Depth 0.00 in    
Sea Level Pressure  
Sea Level Pressure 29.97 in    
Wind  
Wind Speed 4 mph (East)    
Max Wind Speed 14 mph    
Max Gust Speed 16 mph    
Visibility 10 miles    
Events      
T = Trace of Precipitation, MM = Missing Value Source: NWS Daily Summary

Daily Weather History Graph

Daily Weather History Graph

Search for Another Location

Airport:

Trip Planner

Search our weather history database for the weather conditions in past years. The results will help you decide how hot, cold, wet, or windy it might be!

Date:

Astronomy

Jun. 07, 2014 Rise Set
Actual Time 6:01 AM EDT 9:07 PM EDT
Civil Twilight 5:27 AM EDT 9:40 PM EDT
Nautical Twilight 4:44 AM EDT 10:24 PM EDT
Astronomical Twilight 3:53 AM EDT 11:15 PM EDT
Moon 3:19 PM EDT (6/7) 2:26 AM EDT (6/7)
Length of Visible Light 16h 13m
Length of Day
15h 05m
Waxing Gibbous, 67% of the Moon is Illuminated
Jun 7
Waxing Gibbous
Jun 13
Full
Jun 19
Last Quarter
Jun 27
New
Jul 5
First Quarter

Hourly Weather History & Observations

Time (EDT) Temp. Dew Point Humidity Pressure Visibility Wind Dir Wind Speed Gust Speed Precip Events Conditions
12:52 AM 57.0 °F 51.1 °F 81% 30.01 in 10.0 mi Calm Calm - N/A   Clear
1:52 AM 57.0 °F 50.0 °F 77% 30.01 in 10.0 mi Calm Calm - N/A   Clear
2:52 AM 55.0 °F 50.0 °F 83% 30.01 in 10.0 mi Calm Calm - N/A   Clear
3:52 AM 54.0 °F 50.0 °F 86% 30.01 in 10.0 mi Calm Calm - N/A   Clear
4:52 AM 53.6 °F 50.0 °F 88% 30.01 in 10.0 mi Calm Calm - N/A   Clear
5:52 AM 54.0 °F 48.9 °F 83% 30.01 in 10.0 mi Calm Calm - N/A   Clear
6:52 AM 54.0 °F 51.1 °F 90% 30.04 in 10.0 mi Calm Calm - N/A   Clear
7:52 AM 62.1 °F 52.0 °F 70% 30.04 in 10.0 mi Calm Calm - N/A   Clear
8:52 AM 68.0 °F 54.0 °F 61% 30.05 in 10.0 mi Calm Calm - N/A   Clear
9:52 AM 72.0 °F 55.0 °F 55% 30.04 in 10.0 mi ESE 4.6 mph - N/A   Clear
10:52 AM 75.2 °F 51.8 °F 44% 30.03 in 10.0 mi Variable 3.5 mph - N/A   Clear
11:52 AM 78.1 °F 51.1 °F 39% 30.01 in 10.0 mi ESE 5.8 mph - N/A   Clear
12:52 PM 79.0 °F 50.0 °F 36% 30.01 in 10.0 mi SSE 5.8 mph - N/A   Partly Cloudy
1:52 PM 81.0 °F 48.0 °F 31% 29.99 in 10.0 mi Variable 3.5 mph - N/A   Partly Cloudy
2:52 PM 81.0 °F 48.9 °F 33% 29.97 in 10.0 mi ENE 3.5 mph - N/A   Mostly Cloudy
3:52 PM 82.0 °F 50.0 °F 33% 29.93 in 10.0 mi East 6.9 mph - N/A   Clear
4:52 PM 81.0 °F 52.0 °F 36% 29.93 in 10.0 mi ENE 11.5 mph - N/A   Mostly Cloudy
5:52 PM 81.0 °F 51.1 °F 35% 29.92 in 10.0 mi ENE 9.2 mph - N/A   Partly Cloudy
6:52 PM 79.0 °F 51.1 °F 38% 29.90 in 10.0 mi East 12.7 mph - N/A   Clear
7:52 PM 75.0 °F 51.1 °F 43% 29.90 in 10.0 mi East 9.2 mph - N/A   Partly Cloudy
8:52 PM 71.1 °F 52.0 °F 51% 29.89 in 10.0 mi East 8.1 mph - N/A   Clear
9:52 PM 69.1 °F 51.1 °F 53% 29.88 in 10.0 mi Variable 4.6 mph - N/A   Clear
10:52 PM 69.1 °F 50.0 °F 51% 29.88 in 10.0 mi East 5.8 mph - N/A   Clear
11:52 PM 69.1 °F 48.0 °F 47% 29.88 in 10.0 mi SE 4.6 mph - N/A   Clear